EW6143 Weather Reports


time (UTC)temp
F
wind
direction
speed
knots
gust
knots
rain 1hr
in
rain 24hr
in
rain mn
in
humidity
%
barometer
mb
20260902064534 84 311 2.6 7.0 0.00 0.00 0.00 64 1015.6
20260902061552 85 286 2.6 7.0 0.00 0.00 0.00 63 1015.6
20260902051533 86 319 1.7 5.2 0.00 0.00 0.00 63 1015.4
20260902043033 87 263 3.5 7.0 0.00 0.00 0.00 60 1015.3
20260902041539 88 295 2.6 10.4 0.00 0.00 0.00 58 1015.1
20260902031538 90 257 0.9 4.3 0.00 0.00 0.00 52 1014.6
20260902030035 91 275 1.7 5.2 0.00 0.00 0.00 51 1014.4
20260902023038 91 0 0.9 3.5 0.00 0.00 0.00 51 1014.0
20260902021535 92 290 1.7 5.2 0.00 0.00 0.00 51 1013.8
20260902020034 92 0 0.9 5.2 0.00 0.00 0.00 51 1013.6
20260902013034 93 282 1.7 6.1 0.00 0.00 0.00 49 1013.1
20260902011535 94 278 2.6 7.0 0.00 0.00 0.00 48 1013.1
20260902010034 95 286 1.7 3.5 0.00 0.00 0.00 44 1012.9
20260902004536 95 275 0.9 3.5 0.00 0.00 0.00 44 1012.8
20260902001553 96 310 0.9 3.5 0.00 0.00 0.00 43 1013.0
20260902000037 96 301 1.7 7.0 0.00 0.00 0.00 42 1013.1
20260901234533 97 261 3.5 8.7 0.00 0.00 0.00 41 1013.2
20260901231538 97 279 2.6 8.7 0.00 0.00 0.00 41 1013.4
20260901230038 97 264 1.7 7.0 0.00 0.00 0.00 41 1013.4
20260901224533 96 289 3.5 8.7 0.00 0.00 0.00 42 1013.4
20260901223041 97 285 2.6 7.0 0.00 0.00 0.00 41 1013.6
20260901221540 97 246 3.5 9.6 0.00 0.00 0.00 40 1013.5
20260901220033 98 297 4.3 8.7 0.00 0.00 0.00 40 1013.5
20260901214534 100 315 4.3 10.4 0.00 0.00 0.00 38 1013.7
20260901213033 101 307 3.5 9.6 0.00 0.00 0.00 37 1013.7
20260901211535 101 280 1.7 9.6 0.00 0.00 0.00 36 1013.8
20260901210034 101 300 3.5 12.2 0.00 0.00 0.00 37 1013.9
20260901204534 100 275 5.2 12.2 0.00 0.00 0.00 37 1013.9
20260901203037 99 261 3.5 9.6 0.00 0.00 0.00 40 1014.2
20260901201532 100 194 1.7 6.1 0.00 0.00 0.00 39 1014.5
20260901200039 98 279 3.5 7.8 0.00 0.00 0.00 42 1014.7
20260901194534 97 296 1.7 7.0 0.00 0.00 0.00 45 1014.9
20260901193036 99 152 2.6 7.8 0.00 0.00 0.00 42 1015.2
20260901191551 98 187 4.3 10.4 0.00 0.00 0.00 43 1015.4
20260901190036 97 215 3.5 7.8 0.00 0.00 0.00 44 1015.7
20260901184540 97 221 5.2 9.6 0.00 0.00 0.00 45 1015.9
20260901183046 97 172 1.7 8.7 0.00 0.00 0.00 44 1016.2
20260901181535 97 240 3.5 8.7 0.00 0.00 0.00 44 1016.5
20260901180033 97 309 4.3 8.7 0.00 0.00 0.00 43 1016.7
20260901174541 97 348 0.9 9.6 0.00 0.00 0.00 45 1017.1
20260901173045 96 336 0.9 6.1 0.00 0.00 0.00 47 1017.3
20260901171535 96 228 3.5 10.4 0.00 0.00 0.00 48 1017.5
20260901170043 94 284 3.5 7.8 0.00 0.00 0.00 51 1017.5
20260901164541 93 339 3.5 7.8 0.00 0.00 0.00 49 1017.7
20260901163036 94 288 3.5 7.8 0.00 0.00 0.00 51 1017.8
20260901161549 94 346 1.7 7.0 0.00 0.00 0.00 51 1017.7
20260901160035 94 355 2.6 6.1 0.00 0.00 0.00 51 1017.7
20260901154537 93 360 1.7 5.2 0.00 0.00 0.00 53 1017.8
20260901153045 92 327 0.9 5.2 0.00 0.00 0.00 55 1017.8
20260901151539 91 355 1.7 4.3 0.00 0.00 0.00 56 1017.7
20260901150041 89 327 0.9 5.2 0.00 0.00 0.00 59 1017.7
20260901144545 89 5 0.9 4.3 0.00 0.00 0.00 60 1017.9
20260901143045 88 350 0.9 4.3 0.00 0.00 0.00 62 1017.9
20260901141546 86 5 0.9 3.5 0.00 0.00 0.00 65 1017.9
20260901140038 85 355 0.9 3.5 0.00 0.00 0.00 67 1017.9
20260901134540 84 279 0.9 4.3 0.00 0.00 0.00 68 1018.0
20260901133035 83 0 0.9 3.5 0.00 0.00 0.00 69 1017.9
20260901131538 82 288 1.7 4.3 0.00 0.00 0.00 71 1017.9
20260901130036 81 0 0.9 2.6 0.00 0.00 0.00 72 1017.8
20260901124540 80 322 0.0 2.6 0.00 0.00 0.00 73 1017.5
20260901123034 79 298 0.0 2.6 0.00 0.00 0.00 73 1017.3
20260901121536 79 0 0.0 0.0 0.00 0.00 0.00 72 1017.1
20260901120038 79 0 0.0 0.9 0.00 0.00 0.00 71 1016.7
20260901114543 79 0 0.0 2.6 0.00 0.00 0.00 71 1016.7
20260901113036 79 0 0.0 2.6 0.00 0.00 0.00 71 1016.6
20260901111538 80 294 0.9 3.5 0.00 0.00 0.00 70 1016.5
20260901110034 80 0 0.9 1.7 0.00 0.00 0.00 70 1016.4
20260901104533 80 0 0.0 0.0 0.00 0.00 0.00 70 1016.3
20260901103034 80 0 0.0 0.0 0.00 0.00 0.00 69 1016.4
20260901101535 80 0 0.0 1.7 0.00 0.00 0.00 68 1016.4
20260901100034 81 0 0.0 1.7 0.00 0.00 0.00 67 1016.5
20260901094538 81 0 0.0 0.0 0.00 0.00 0.00 66 1016.5
20260901093038 82 0 0.0 0.0 0.00 0.00 0.00 65 1016.6
20260901091536 82 0 0.0 0.9 0.00 0.00 0.00 64 1016.6
20260901090038 83 288 0.0 1.7 0.00 0.00 0.00 63 1016.4
20260901084540 83 0 0.0 2.6 0.00 0.00 0.00 62 1016.3
20260901083038 83 0 0.0 2.6 0.00 0.00 0.00 61 1016.2
20260901081536 83 294 0.9 3.5 0.00 0.00 0.00 60 1016.1
20260901080038 84 329 0.9 2.6 0.00 0.00 0.00 59 1016.1
20260901074544 85 0 0.0 3.5 0.00 0.00 0.00 58 1016.1